Flag for Austria Weather past 2 weeks in Bruck an der Leitha, Lower Austria, Austria

Now
40 °F

Overcast.


Feels Like: 37 °F
Forecast: 39 / 51 °F
Wind: 5 mph from North

Location: Wien / Schwechat-Flughafen

Current Time: Oct 25, 2014 at 1:12:21 AM

Latest Report: Oct 25, 2014 at 12:00 AM


Visibility: 8 mi

Pressure: 30.25 "Hg

Humidity: 81%

Dew point: 35 °F

Location of Bruck an der LeithaLocation

Historic Weather in Bruck an der Leitha — Graph

°F

Bruck an der Leitha temperature yesterday

Maximum temperature yesterday: 51 °F (at 4:00 PM)
Minimum temperature yesterday: 40 °F (at 11:00 PM)
Average temperature yesterday: 46 °F

Past Weeks' High & Low Weather Summary

 TemperatureHumidityPressure
High71 °F (Oct 16, 4:00 PM)100% (Oct 10, 7:00 AM)30.33 "Hg (Oct 10, 7:00 AM)
Low40 °F (Oct 24, 11:00 PM)52% (Oct 16, 2:00 PM)29.60 "Hg (Oct 22, 1:00 AM)
Average57 °F84%29.96 "Hg
* Reported Oct 9 11:00 PM — Oct 24 11:00 PM, Bruck an der Leitha, Weather by CustomWeather, © 2014

Note: Actual official high and low records may vary slightly from our data, if they occured in-between our weather recording intervals... More about our weather records

Advertising

Bruck an der Leitha weather history for previous 24 hours

 ConditionsComfort  
Time TempWeatherWind HumidityBarometerVisibility
11:00 PM
Oct 24
40 °FOvercast.5 mph81%30.24 "Hg7 mi
10:00 PM41 °FOvercast.6 mph82%30.23 "Hg7 mi
9:00 PM42 °FOvercast.6 mph81%30.20 "Hg7 mi
8:00 PM44 °FPassing clouds.6 mph82%30.18 "Hg6 mi
7:00 PM46 °FOvercast.6 mph77%30.16 "Hg7 mi
6:00 PM47 °FOvercast.6 mph75%30.14 "Hg8 mi
5:00 PM49 °FScattered clouds.7 mph71%30.13 "Hg12 mi
4:00 PM51 °FPartly sunny.8 mph68%30.12 "Hg12 mi
3:00 PM50 °FPartly sunny.8 mph69%30.12 "Hg12 mi
2:00 PM50 °FOvercast.8 mph71%30.14 "Hg10 mi
1:00 PM49 °FOvercast.8 mph73%30.14 "Hg11 mi
12:00 PM49 °FOvercast.8 mph74%30.15 "Hg12 mi
11:00 AM47 °FOvercast.9 mph76%30.15 "Hg13 mi
10:00 AM46 °FOvercast.9 mph79%30.14 "Hg13 mi
9:00 AM45 °FOvercast.9 mph79%30.13 "Hg16 mi
8:00 AM46 °FOvercast.10 mph77%30.11 "Hg22 mi
7:00 AM45 °FOvercast.9 mph78%30.09 "Hg19 mi
6:00 AM46 °FOvercast.10 mph77%30.09 "Hg19 mi
5:00 AM45 °FOvercast.12 mph78%30.08 "Hg22 mi
4:00 AM46 °FOvercast.12 mph78%30.08 "Hg22 mi
3:00 AM46 °FOvercast.10 mph82%30.08 "Hg16 mi
2:00 AM47 °FOvercast.10 mph79%30.07 "Hg17 mi
1:00 AM47 °FOvercast.12 mph79%30.06 "Hg17 mi
Weather by CustomWeather, © 2014

See weather overviewHow to use our weather pages